Andover, NJ

4:54 PM EST on February 20, 2018 (GMT -0500)
Andover

Weather History for K12N - April, 2014

Change the Weather History Date:

Friday, April 18, 2014

  Actual Average (KFWN) Record (KFWN)
Temperature  
Mean Temperature 40 °F -  
Max Temperature 51 °F 61 °F 91 °F (1976)
Min Temperature 30 °F 36 °F 25 °F (1971)
Degree Days  
Heating Degree Days 24    
Moisture  
Dew Point 28 °F    
Average Humidity 65    
Maximum Humidity 92    
Minimum Humidity 38    
Precipitation  
Precipitation 0.00 in - - ()
Sea Level Pressure  
Sea Level Pressure 30.45 in    
Wind  
Wind Speed 2 mph (South)    
Max Wind Speed 8 mph    
Max Gust Speed -    
Averages and records for this station are not official NWS values.
T = Trace of Precipitation, MM = Missing Value Source: NWS Daily Summary

Daily Weather History Graph

Daily Weather History Graph

Search for Another Location

Airport or City:

Trip Planner

Search our weather history database for the weather conditions in past years. The results will help you decide how hot, cold, wet, or windy it might be!

Date:

Astronomy

Apr. 18, 2014 Rise Set
Actual Time 6:15 AM EDT 7:41 PM EDT
Civil Twilight 5:46 AM EDT 8:10 PM EDT
Nautical Twilight 5:12 AM EDT 8:45 PM EDT
Astronomical Twilight 4:35 AM EDT 9:22 PM EDT
Moon 11:25 PM EDT (4/18) 8:34 AM EDT (4/18)
Length of Visible Light 14h 24m
Length of Day
13h 26m
Waning Gibbous, 87% of the Moon is Illuminated
Apr 18
Waning Gibbous
Apr 22
Last Quarter
Apr 29
New
May 6
First Quarter
May 14
Full

Hourly Weather History & Observations

Time (EDT) Temp. Windchill Dew Point Humidity Pressure Visibility Wind Dir Wind Speed Gust Speed Precip Events Conditions
12:54 AM 36.0 °F - 30.9 °F 82% 30.61 in - Calm Calm - N/A   Unknown
1:54 AM 36.0 °F - 30.9 °F 82% 30.62 in - Calm Calm - N/A   Unknown
2:54 AM 34.0 °F - 30.9 °F 89% 30.58 in - Calm Calm - N/A   Unknown
3:54 AM 33.1 °F 30.0 °F 30.9 °F 92% 30.53 in - ENE 3.5 mph - N/A   Unknown
4:54 AM 30.9 °F - 28.9 °F 92% 30.52 in - Calm Calm - N/A   Unknown
5:54 AM 30.0 °F - 28.0 °F 92% 30.53 in - Calm Calm - N/A   Unknown
6:54 AM 30.9 °F - 28.9 °F 92% 30.54 in - Calm Calm - N/A   Unknown
7:54 AM 34.0 °F 29.8 °F 28.9 °F 82% 30.56 in - SSE 4.6 mph - N/A   Unknown
8:54 AM 36.0 °F 33.3 °F 27.0 °F 70% 30.56 in - SE 3.5 mph - N/A   Unknown
9:54 AM 39.0 °F - 26.1 °F 60% 30.53 in - Calm Calm - N/A   Unknown
10:54 AM 39.9 °F - 26.1 °F 58% 30.50 in - Calm Calm - N/A   Unknown
11:54 AM 43.0 °F 40.3 °F 25.0 °F 49% 30.48 in - Variable 4.6 mph - N/A   Unknown
12:54 PM 45.0 °F 40.6 °F 25.0 °F 46% 30.45 in - SSW 8.1 mph - N/A   Unknown
1:54 PM 46.9 °F - 25.0 °F 42% 30.44 in - Variable 4.6 mph - N/A   Unknown
2:54 PM 50.0 °F - 26.1 °F 39% 30.39 in - Variable 6.9 mph - N/A   Unknown
3:54 PM 50.0 °F - 25.0 °F 38% 30.36 in - Variable 4.6 mph - N/A   Unknown
5:54 PM 51.1 °F - 26.1 °F 38% 30.32 in - SSW 6.9 mph - N/A   Unknown
6:54 PM 48.9 °F - 28.9 °F 46% 30.31 in - SSW 5.8 mph - N/A   Unknown
7:54 PM 46.9 °F - 28.9 °F 50% 30.30 in - Calm Calm - N/A   Unknown
8:54 PM 45.0 °F - 30.0 °F 56% 30.30 in - Calm Calm - N/A   Unknown
9:54 PM 43.0 °F - 30.9 °F 62% 30.29 in - Calm Calm - N/A   Unknown
10:54 PM 43.0 °F - 33.1 °F 68% 30.27 in - Calm Calm - N/A   Unknown
11:54 PM 42.1 °F - 33.1 °F 70% 30.26 in - Calm Calm - N/A   Unknown